Location: PSU-Greenbush Astrophysical Observatory
(37.5140°N, 94.9880°W)
Time: 05:07:29
(UTC-05:00)

BEESAT - Pass Details

Date: 29 February 2020
Orbit: 700 x 709 km, 98.6° (Epoch: 06 April)

Event Time Altitude Azimuth Distance (km) Brightness Sun altitude
Rises 04:48:02 0° 150° (SSE) 3,083 ? -25.3°
Reaches altitude 10° 04:50:21 10° 144° (SE) 2,168 ? -24.8°
Maximum altitude 04:54:52 45° 72° (ENE) 954 ? -24.0°
Drops below altitude 10° 04:59:24 10° 0° (N) 2,176 ? -23.1°
Sets 05:01:44 0° 354° (N) 3,098 ? -22.6°
